Location: Chamancalla
(13.4403°S, 72.3419°W)
Time: 23:59:48
(UTC+00:00)

Daily predictions for brighter satellites

Satellite Brightness Start Highest point End
(mag) Time Altitude Azimuth Time Altitude Azimuth Time Altitude Azimuth
Cosmos 1782 Rocket 3.6 23:25:50 10° N 23:30:05 57° E 23:34:23 10° SSE
Okean-O 3.1 23:25:40 10° S 23:30:06 69° WSW 23:34:30 10° NNW
FALCON 9 DEB 4.4 23:29:57 10° SSE 23:31:25 15° SE 23:32:51 10° E
Cosmos 405 3.0 23:28:07 10° S 23:31:36 59° E 23:35:04 10° NNE
Aurora 2 Rocket 2.1 23:29:28 10° NW 23:32:41 43° NNE 23:35:38 10° E
Sich 1 Rocket 4.0 23:28:36 10° NNE 23:32:45 42° E 23:36:58 10° SSE
Okean 2 Rocket 4.3 23:30:26 10° NE 23:33:57 22° E 23:37:29 10° SE
Palapa 6 Rocket 3.7 23:29:30 10° NW 23:34:03 37° NNE 23:37:55 10° E
IRIDIUM 104 4.3 23:32:07 10° S 23:37:23 83° E 23:42:36 10° N
Cosmos 1666 4.1 23:34:16 10° NNW 23:37:50 43° W 23:41:26 10° SSW
FALCON 9 DEB 4.0 23:36:31 10° S 23:38:20 19° SE 23:40:04 10° E
ATLAS 3B R/B 3.3 23:32:10 10° NNW 23:39:11 67° WSW 23:46:29 10° SSE
Aureole 3 Rocket 4.3 23:36:40 10° NE 23:40:01 25° E 23:44:19 10° SSE
BREEZE-M R/B 2.3 23:38:08 10° SW 23:40:16 49° NW 23:41:53 10° NNE
Cosmos 1674 Rocket 3.8 23:40:45 10° S 23:45:13 75° W 23:49:40 10° N
YAOGAN 6 3.3 23:42:07 10° S 23:45:34 56° WSW 23:48:58 10° NNW
Delta 168 4.4 23:42:08 10° W 23:45:41 29° SSW 23:48:36 10° SE
USA 81 4.0 23:40:27 10° S 23:45:46 79° E 23:51:02 10° N
FengYun 1-2 T 4.2 23:40:24 10° SSE 23:45:58 89° ENE 23:51:27 10° NNW
Ariane H10 4.2 23:49:05 10° NW 23:51:21 20° N 23:53:31 13° NE
YAOGAN 1 2.5 23:47:16 10° SSE 23:51:36 67° ENE 23:55:53 10° N
STARLINK 1027 4.2 23:52:22 10° S 23:54:48 23° SE 23:56:12 17° E
STARLINK 1028 4.2 23:52:38 10° S 23:55:05 23° SE 23:56:28 17° E
STARLINK 1021 4.2 23:52:48 10° S 23:55:15 23° SE 23:56:37 17° E
STARLINK 1019 4.2 23:53:06 10° S 23:55:32 23° SE 23:56:51 17° E
STARLINK 1012 4.2 23:53:18 10° S 23:55:46 24° SE 23:57:07 17° E
STARLINK 1010 4.2 23:53:31 10° S 23:55:59 24° SE 23:57:21 17° E
STARLINK 1026 4.1 23:53:44 10° S 23:56:13 24° SE 23:57:33 17° E
STARLINK 1013 4.1 23:53:57 10° S 23:56:26 24° SE 23:57:46 18° E
STARLINK 1009 4.1 23:54:10 10° S 23:56:40 25° SE 23:57:59 18° E
STARLINK 1015 4.1 23:54:24 10° S 23:56:53 25° SE 23:58:12 18° E
STARLINK 1016 4.1 23:54:37 10° S 23:57:07 25° SE 23:58:25 18° E
STARLINK 1008 4.1 23:54:50 10° S 23:57:21 25° SE 23:58:39 18° E
